Location: Foligno
(42.9600°N, 12.7050°E)
Time: 06:29:08
(UTC+01:00)

ISS - Pass Details

Date: 20 January 2021
Orbit: 418 x 421 km, 51.6° (Epoch: 23 January)

Event Time Altitude Azimuth Distance (km) Brightness Sun altitude
Rises 18:38:30 0° 235° (SW) 2,358 1.3 -16.7°
Reaches altitude 10° 18:40:35 10° 235° (SW) 1,498 0.1 -17.1°
Maximum altitude 18:43:57 89° 147° (SSE) 425 -3.9 -17.7°
Enters shadow 18:44:39 54° 57° (ENE) 518 -3.7 -17.8°
